Weather reports worldwide

Advertisment
Shawbury, United Kingdom (3414): temperature & dewpoint: 13.06.2018 00:00:00 - 19.06.2018 00:00:00 (BST)Shawbury, United Kingdom (3414): temperature -20cm & temperature -100cm: 13.06.2018 00:00:00 - 19.06.2018 00:00:00 (BST)Shawbury, United Kingdom (3414): wind speed & gusts: 13.06.2018 00:00:00 - 19.06.2018 00:00:00 (BST)Shawbury, United Kingdom (3414): wind direction: 13.06.2018 00:00:00 - 19.06.2018 00:00:00 (BST)Shawbury, United Kingdom (3414): reduced air pressure: 13.06.2018 00:00:00 - 19.06.2018 00:00:00 (BST)Shawbury, United Kingdom (3414): visibility: 13.06.2018 00:00:00 - 19.06.2018 00:00:00 (BST)Shawbury, United Kingdom (3414): sunshine duration: 13.06.2018 00:00:00 - 19.06.2018 00:00:00 (BST)Shawbury, United Kingdom (3414): precipitation: 13.06.2018 00:00:00 - 19.06.2018 00:00:00 (BST)
Date & Time tt [°C] td [°C] tt -20cm [°C] tt -100cm [°C] ff [km/h] ff [kn] fx [km/h] fx [kn] dd ppp [hPa] vv [km] sd [min] rr [mm]
19.06.2018 00:00:00 - - - - - - - - - - - - -
18.06.2018 23:00:00 16,3 14,4 - - 24 13 - - WSW 1018,2 25 0 0,0
18.06.2018 22:00:00 17,0 14,5 - - 31 17 48 26 WSW 1017,8 26 0 0,0
18.06.2018 21:00:00 17,1 14,8 - - 34 18 48 26 WSW 1016,9 10 0 0,0
18.06.2018 20:00:00 18,2 15,1 - - 15 8 - - SW 1016,7 27 0 0,0
18.06.2018 19:00:00 17,4 14,9 - - 11 6 - - W 1017,0 21 0 0,0
18.06.2018 18:00:00 17,7 14,5 - - 21 11 - - WSW 1016,9 10 0 0,0
18.06.2018 17:00:00 18,1 13,9 - - 29 16 - - SW 1016,8 10 0 0,0
18.06.2018 16:00:00 18,6 13,6 - - 31 17 - - SW 1017,0 10 0 0,0
18.06.2018 15:00:00 18,2 12,8 - - 28 15 - - WSW 1017,3 40 12 0,0
18.06.2018 14:00:00 17,9 11,8 - - 28 15 - - WSW 1017,7 10 36 0,0
18.06.2018 13:00:00 18,0 10,7 - - 28 15 - - WSW 1017,7 10 36 0,0
18.06.2018 12:00:00 16,8 9,5 - - 35 19 48 26 W 1017,6 10 6 0,0
18.06.2018 11:00:00 16,8 9,4 - - 28 15 - - WSW 1017,6 10 36 0,0
18.06.2018 10:00:00 15,2 9,2 15,2 14,2 24 13 - - WSW 1017,8 10 0 0,0
18.06.2018 09:00:00 15,1 9,2 - - 22 12 - - W 1017,6 10 12 0,0
18.06.2018 08:00:00 14,5 10,0 - - 26 14 - - WSW 1016,8 10 0 0,0
18.06.2018 07:00:00 14,3 11,0 - - 15 8 - - SW 1016,1 10 12 0,0
18.06.2018 06:00:00 14,0 11,0 - - 15 8 - - SW 1015,8 10 0 0,0
18.06.2018 05:00:00 13,9 11,5 - - 15 8 - - WSW 1015,4 21 0 0,0
18.06.2018 04:00:00 14,5 12,3 - - 16 9 - - SW 1014,6 19 0 0,0
18.06.2018 03:00:00 14,8 12,8 - - 21 11 - - WSW 1014,8 10 0 0,0
18.06.2018 02:00:00 15,3 12,5 - - 18 10 - - SW 1014,7 24 0 0,0
18.06.2018 01:00:00 15,1 13,1 - - 13 7 - - W 1014,5 24 - 0,0
18.06.2018 00:00:00 15,0 13,2 - - 13 7 - - WSW 1014,4 23 0 0,0
17.06.2018 23:00:00 15,2 12,6 - - 24 13 - - WSW 1014,1 24 0 0,0
17.06.2018 22:00:00 15,8 13,1 - - 21 11 - - WSW 1013,9 26 0 0,0
17.06.2018 21:00:00 16,1 13,9 - - 16 9 - - W 1013,3 22 0 0,0
17.06.2018 20:00:00 16,4 14,8 - - 15 8 - - WSW 1012,8 28 0 0,2
17.06.2018 19:00:00 16,4 14,6 - - 16 9 - - S 1012,5 21 0 0,0
17.06.2018 18:00:00 16,5 13,7 - - 15 8 - - S 1012,4 27 0 0,0
17.06.2018 17:00:00 14,9 13,3 - - 18 10 - - S 1012,6 13 0 0,2
17.06.2018 16:00:00 14,5 13,2 - - 22 12 - - S 1013,1 5 0 0,0
17.06.2018 15:00:00 16,0 10,8 - - 29 16 - - S 1012,9 26 0 0,0
17.06.2018 14:00:00 15,8 10,7 - - 22 12 - - S 1013,1 24 0 0,0
17.06.2018 13:00:00 15,4 10,0 - - 15 8 - - S 1013,4 22 0 0,0
17.06.2018 12:00:00 15,0 9,3 - - 16 9 - - SSW 1013,9 29 0 0,0
17.06.2018 11:00:00 15,1 8,7 - - 18 10 - - WSW 1014,0 10 0 0,0
17.06.2018 10:00:00 14,2 8,8 15,2 14,4 16 9 - - SSW 1014,1 25 0 0,0
17.06.2018 09:00:00 13,6 10,2 - - 21 11 - - SW 1014,3 10 0 0,0
17.06.2018 08:00:00 12,7 10,7 - - 13 7 - - SW 1014,1 23 0 0,2
17.06.2018 07:00:00 11,7 10,1 - - 15 8 - - SW 1013,9 13 0 0,6
17.06.2018 06:00:00 12,1 9,4 - - 13 7 - - SW 1013,4 20 0 0,0
17.06.2018 05:00:00 12,2 9,2 - - 16 9 - - SW 1012,8 24 0 0,0
17.06.2018 04:00:00 12,5 9,3 - - 11 6 - - SSW 1012,9 24 0 0,0
17.06.2018 03:00:00 12,2 9,4 - - 9 5 - - SW 1012,8 21 0 0,0
17.06.2018 02:00:00 11,7 9,3 - - 9 5 - - WSW 1012,7 19 0 0,0
17.06.2018 01:00:00 11,5 9,4 - - 15 8 - - SW 1012,7 19 - 0,0
17.06.2018 00:00:00 12,2 9,3 - - 16 9 - - SSW 1012,7 21 0 0,0
16.06.2018 23:00:00 12,8 9,3 - - 16 9 - - SW 1012,5 21 0 0,0
16.06.2018 22:00:00 12,9 9,4 - - 11 6 - - SW 1012,3 22 0 0,0
16.06.2018 21:00:00 13,8 9,1 - - 18 10 - - WSW 1011,8 10 0 0,0
16.06.2018 20:00:00 14,8 9,1 - - 22 12 - - WSW 1011,5 29 18 0,0
16.06.2018 19:00:00 15,1 8,6 - - 35 19 50 27 WSW 1011,0 10 36 0,0
16.06.2018 18:00:00 16,8 8,3 - - 37 20 52 28 WSW 1010,3 30 60 0,0
16.06.2018 17:00:00 17,6 12,4 - - 29 16 46 25 WSW 1010,0 27 18 1,6
16.06.2018 16:00:00 16,6 12,6 - - 28 15 - - S 1009,2 11 12 0,2
16.06.2018 15:00:00 17,6 11,3 - - 29 16 - - S 1009,8 29 12 0,0
16.06.2018 14:00:00 15,8 10,8 - - 26 14 - - S 1010,5 19 6 0,0
16.06.2018 13:00:00 16,7 10,0 - - 31 17 - - SSW 1010,6 20 0 0,0
16.06.2018 12:00:00 15,3 10,0 - - 29 16 - - SSW 1011,0 21 0 0,0
16.06.2018 11:00:00 14,2 10,3 - - 24 13 - - S 1011,3 20 0 0,0
16.06.2018 10:00:00 13,1 10,4 15,4 14,5 24 13 - - S 1011,8 10 0 0,0
16.06.2018 09:00:00 11,9 10,4 - - 15 8 - - S 1012,4 13 0 0,6
16.06.2018 08:00:00 11,8 9,7 - - 11 6 - - SSE 1012,7 10 0 0,0
16.06.2018 07:00:00 11,5 9,7 - - 13 7 - - S 1012,7 16 0 0,0
16.06.2018 06:00:00 11,2 9,3 - - 13 7 - - S 1012,8 17 0 0,2
16.06.2018 05:00:00 11,7 8,8 - - 9 5 - - S 1013,2 21 0 0,0
16.06.2018 04:00:00 11,8 8,4 - - 8 4 - - SSW 1013,6 28 0 0,0
16.06.2018 03:00:00 12,1 7,8 - - 9 5 - - SSW 1014,1 21 0 0,0
16.06.2018 02:00:00 11,8 8,3 - - 5 3 - - SSW 1014,5 20 0 0,0
16.06.2018 01:00:00 11,9 7,5 - - 8 4 - - SW 1014,8 21 - 0,0
16.06.2018 00:00:00 12,5 7,2 - - 13 7 - - WSW 1015,0 21 0 0,0
15.06.2018 23:00:00 12,7 6,9 - - 11 6 - - W 1015,3 21 0 0,0
15.06.2018 22:00:00 13,0 7,1 - - 5 3 - - WSW 1015,3 10 0 0,0
15.06.2018 21:00:00 14,1 5,8 - - 15 8 - - W 1015,3 25 12 0,0
15.06.2018 20:00:00 15,5 3,7 - - 16 9 - - W 1015,3 25 36 0,0
15.06.2018 19:00:00 15,7 4,6 - - 21 11 - - WSW 1015,3 10 42 0,0
15.06.2018 18:00:00 16,1 4,2 - - 21 11 - - W 1015,4 22 48 0,0
15.06.2018 17:00:00 15,9 4,2 - - 22 12 - - WSW 1015,9 10 30 0,0
15.06.2018 16:00:00 15,8 4,3 - - 24 13 - - WSW 1016,0 10 6 0,0
15.06.2018 15:00:00 16,1 4,9 - - 26 14 - - W 1016,1 10 0 0,0
15.06.2018 14:00:00 16,6 5,2 - - 28 15 - - W 1016,2 10 0 0,0
15.06.2018 13:00:00 14,1 8,7 - - 16 9 - - SW 1016,3 10 0 0,0
15.06.2018 12:00:00 14,7 8,1 - - 15 8 - - WSW 1016,2 10 0 0,0
15.06.2018 11:00:00 14,9 8,4 - - 21 11 - - SW 1015,9 10 6 0,0
15.06.2018 10:00:00 15,5 9,1 15,5 14,5 21 11 - - SW 1016,1 10 30 0,0
15.06.2018 09:00:00 14,4 9,7 - - 16 9 - - SW 1016,1 10 48 0,0
15.06.2018 08:00:00 12,6 9,6 - - 15 8 - - SW 1016,1 10 6 0,0
15.06.2018 07:00:00 11,3 8,8 - - 13 7 - - SW 1016,0 10 0 0,0
15.06.2018 06:00:00 10,3 8,6 - - 8 4 - - SW 1016,0 10 0 0,0
15.06.2018 05:00:00 8,8 7,6 - - 8 4 - - SSW 1015,6 14 0 0,0
15.06.2018 04:00:00 9,9 8,3 - - 5 3 - - SSW 1015,5 15 0 0,0
15.06.2018 03:00:00 9,9 8,2 - - 9 5 - - S 1015,6 16 0 0,0
15.06.2018 02:00:00 10,1 8,2 - - 5 3 - - S 1015,5 18 0 0,0
15.06.2018 01:00:00 10,2 8,2 - - 15 8 - - W 1015,2 18 - 0,0
15.06.2018 00:00:00 10,1 8,1 - - 16 9 - - WSW 1015,2 19 0 0,0
14.06.2018 23:00:00 11,6 8,1 - - 13 7 - - SW 1015,4 10 0 0,0
14.06.2018 22:00:00 13,2 7,6 - - 16 9 - - SW 1015,0 10 0 0,0
14.06.2018 21:00:00 13,6 8,2 - - 18 10 - - WSW 1014,4 19 36 0,0
14.06.2018 20:00:00 16,3 7,0 - - 24 13 - - WSW 1013,6 23 54 0,0
14.06.2018 19:00:00 17,7 7,7 - - 26 14 - - WSW 1013,0 23 36 0,0
14.06.2018 18:00:00 17,2 6,2 - - 24 13 - - W 1012,8 28 24 0,0
14.06.2018 17:00:00 17,8 5,3 - - 18 10 - - W 1012,0 10 18 0,0
14.06.2018 16:00:00 18,8 5,1 - - 24 13 - - W 1011,5 10 48 0,0
14.06.2018 15:00:00 18,0 7,3 - - 26 14 - - W 1010,9 10 18 0,0
14.06.2018 14:00:00 17,1 8,9 - - 18 10 - - W 1010,1 10 18 0,0
14.06.2018 13:00:00 16,4 8,6 - - 31 17 46 25 W 1009,5 10 12 0,0
14.06.2018 12:00:00 16,7 8,9 - - 34 18 52 28 WSW 1008,2 10 6 0,0
14.06.2018 11:00:00 16,2 8,6 - - 31 17 48 26 W 1007,3 10 0 0,0
14.06.2018 10:00:00 15,6 9,9 16,2 14,5 37 20 61 33 W 1006,1 10 0 0,0
14.06.2018 09:00:00 15,4 9,7 - - 42 23 72 39 WSW 1005,1 10 0 0,0
14.06.2018 08:00:00 16,6 13,4 - - 29 16 46 25 SW 1003,7 10 0 0,0
14.06.2018 07:00:00 15,6 12,6 - - 34 18 50 27 SSW 1002,9 10 0 0,0
14.06.2018 06:00:00 15,3 12,3 - - 37 20 52 28 SSW 1003,7 10 0 0,0
14.06.2018 05:00:00 14,8 11,5 - - 31 17 48 26 S 1003,9 21 0 0,0
14.06.2018 04:00:00 14,9 10,9 - - 28 15 - - S 1004,7 26 0 0,0
14.06.2018 03:00:00 14,5 11,3 - - 24 13 46 25 S 1006,5 26 0 0,2
14.06.2018 02:00:00 14,2 11,5 - - 26 14 - - S 1007,4 27 0 0,0
14.06.2018 01:00:00 13,7 11,7 - - 18 10 - - S 1008,7 24 - 0,0
14.06.2018 00:00:00 13,6 11,8 - - 21 11 - - S 1009,9 23 0 1,0
13.06.2018 23:00:00 13,6 11,9 - - 22 12 - - S 1011,2 10 0 1,2
13.06.2018 22:00:00 14,4 11,4 - - 18 10 - - SSW 1012,1 10 0 0,2
13.06.2018 21:00:00 16,0 9,9 - - 24 13 - - SW 1012,4 18 0 0,0
13.06.2018 20:00:00 17,3 9,6 - - 22 12 - - SW 1012,4 20 0 0,0
13.06.2018 19:00:00 18,0 12,0 - - 15 8 - - WSW 1012,8 18 0 0,0
13.06.2018 18:00:00 18,3 11,7 - - 22 12 - - W 1013,3 19 0 0,0
13.06.2018 17:00:00 20,3 10,8 - - 18 10 - - WSW 1013,4 10 0 0,0
13.06.2018 16:00:00 19,9 10,5 - - 21 11 - - SW 1014,0 10 0 0,0
13.06.2018 15:00:00 20,0 10,6 - - 22 12 - - WSW 1014,7 10 0 0,0
13.06.2018 14:00:00 19,3 9,8 - - 16 9 - - WSW 1015,5 10 0 0,0
13.06.2018 13:00:00 19,1 9,7 - - 22 12 - - WSW 1016,2 10 0 0,0
13.06.2018 12:00:00 18,7 11,2 - - 22 12 - - WSW 1016,6 10 18 0,0
13.06.2018 11:00:00 17,8 11,4 - - 15 8 - - W 1017,5 10 54 0,0
13.06.2018 10:00:00 16,8 12,0 16,2 14,5 9 5 - - SSW 1017,7 10 48 0,0
13.06.2018 09:00:00 15,1 11,2 - - 8 4 - - SSE 1018,2 10 60 0,0
13.06.2018 08:00:00 14,0 10,7 - - 9 5 - - SSE 1018,3 10 36 0,0
13.06.2018 07:00:00 12,1 10,9 - - 4 2 - - SW 1018,8 10 6 0,0
13.06.2018 06:00:00 10,5 9,9 - - 5 3 - - WSW 1018,9 10 0 0,0
13.06.2018 05:00:00 11,6 10,6 - - 2 1 - - W 1019,0 10 0 0,0
13.06.2018 04:00:00 11,3 10,3 - - 2 1 - - WNW 1019,6 11 0 0,0
13.06.2018 03:00:00 10,5 9,5 - - 8 4 - - W 1020,0 12 0 0,0
13.06.2018 02:00:00 11,4 10,2 - - 2 1 - - NNE 1020,0 10 0 0,0
13.06.2018 01:00:00 11,2 10,1 - - 11 6 - - NNW 1020,1 12 - 0,0
13.06.2018 00:00:00 11,5 10,2 - - 13 7 - - NNW 1019,8 12 0 0,0

tt = temperature
td = dewpoint
tt -20cm = temperature -20cm
tt -100cm = temperature -100cm
ff = wind speed
fx = gusts
dd = wind direction
ppp = reduced air pressure
vv = visibility
sd = sunshine duration
rr = precipitation

Next stations